{"data":{"norad_id":60051,"intl_designator":"2024-112P","name":"STARLINK-31811","alt_names":[],"object_type":"PAYLOAD","status":"ACTIVE","operator":null,"country":"US","launch_date":"2024-06-08","launch_site_code":"AFWTR","launch_vehicle":null,"mission":null,"orbit_class":"UNKNOWN","rcs_meters":null,"size_class":null,"mass_kg":null,"dimensions":null,"purposes":["comms"],"wikipedia_slug":null,"has_3d_model":false,"image_url":null,"decayed_at":null,"tle_current":{"epoch":"2026-09-10T08:42:08.105184Z","epoch_age_seconds":1053587,"freshness":"AGED","line1":"1 60051U 24112P   26253.36259381  .09088332  11746-4  38920-2 0  9997","line2":"2 60051  53.1513 291.3360 0008887 174.8651 185.2482 16.21937946126994","mean_motion":16.21937946,"eccentricity":0.0008887,"inclination_deg":53.1513,"raan_deg":291.336,"arg_perigee_deg":174.8651,"mean_anomaly_deg":185.2482,"bstar":0.003892,"rev_number":12699,"period_min":88.782681455311,"perigee_km":208.43670337776,"apogee_km":220.15409272205,"semimajor_km":6592.4323980499,"source":"CELESTRAK","updated_at":"2026-09-12T09:00:33.923057Z"}}}